GW6839 Weather Reports


time (UTC)temp
C
wind
direction
speed
KPH
gust
KPH
rain 1hr
cm
rain 24hr
cm
rain mn
cm
humidity
%
barometer
mb
20260509024347 10 111 1.6 4.8 0.00 0.03 0.03 85 1007.4
20260509023844 11 96 3.2 4.8 0.00 0.03 0.03 84 1007.5
20260509023342 11 95 3.2 4.8 0.00 0.03 0.03 84 1007.4
20260509022838 11 93 3.2 6.4 0.00 0.03 0.03 83 1007.4
20260509022336 11 106 1.6 4.8 0.00 0.03 0.03 83 1007.4
20260509021832 11 91 3.2 4.8 0.00 0.03 0.03 82 1007.5
20260509021329 11 132 3.2 6.4 0.00 0.03 0.03 82 1007.5
20260509020827 11 63 1.6 4.8 0.00 0.03 0.03 81 1007.5
20260509020325 11 142 4.8 6.4 0.00 0.03 0.03 80 1007.3
20260509015822 11 116 4.8 4.8 0.00 0.03 0.03 79 1007.3
20260509015320 11 144 6.4 6.4 0.00 0.03 0.03 79 1007.3
20260509014817 11 70 1.6 4.8 0.00 0.03 0.03 79 1007.3
20260509014314 11 78 1.6 3.2 0.00 0.03 0.03 79 1007.5
20260509013810 11 91 3.2 4.8 0.00 0.03 0.03 79 1007.5
20260509013306 11 97 3.2 3.2 0.00 0.03 0.03 78 1007.1
20260509012802 11 97 3.2 4.8 0.00 0.03 0.03 78 1007.2
20260509012300 11 120 3.2 3.2 0.00 0.03 0.03 77 1007.3
20260509011757 11 85 1.6 3.2 0.00 0.03 0.03 76 1007.1
20260509011254 12 75 1.6 4.8 0.00 0.03 0.03 75 1007.0
20260509010752 12 66 0.0 3.2 0.00 0.03 0.03 75 1007.0
20260509010248 12 73 1.6 3.2 0.00 0.03 0.03 74 1007.0
20260509005746 12 71 1.6 3.2 0.00 0.03 0.03 73 1006.9
20260509005244 12 77 1.6 3.2 0.00 0.03 0.03 72 1006.9
20260509004743 12 76 1.6 3.2 0.00 0.03 0.03 71 1007.0
20260509004241 12 75 1.6 4.8 0.00 0.03 0.03 70 1006.8
20260509003739 13 121 4.8 4.8 0.00 0.03 0.03 69 1006.9
20260509003236 13 172 6.4 6.4 0.00 0.03 0.03 68 1006.8
20260509002733 13 108 3.2 4.8 0.00 0.03 0.03 67 1006.7
20260509002231 13 114 3.2 6.4 0.00 0.03 0.03 65 1006.8
20260509001728 13 164 6.4 9.7 0.00 0.03 0.03 62 1006.7
20260509001224 14 160 4.8 9.7 0.00 0.03 0.03 60 1006.8
20260509000722 14 157 4.8 4.8 0.00 0.03 0.03 58 1006.7
20260509000219 15 151 4.8 4.8 0.00 0.03 0.03 56 1006.7
20260508235716 15 81 3.2 4.8 0.00 0.03 0.03 55 1006.7
20260508235212 15 50 1.6 4.8 0.00 0.03 0.03 53 1006.6
20260508234710 15 171 4.8 4.8 0.00 0.03 0.03 51 1006.6
20260508234206 15 72 3.2 4.8 0.00 0.03 0.03 51 1006.6
20260508233706 15 129 4.8 4.8 0.00 0.03 0.03 50 1006.7
20260508233203 15 58 0.0 1.6 0.00 0.03 0.03 49 1006.7
20260508232700 15 152 3.2 4.8 0.00 0.03 0.03 47 1006.8
20260508232156 15 70 1.6 3.2 0.00 0.03 0.03 49 1006.8
20260508231655 15 57 1.6 6.4 0.00 0.03 0.03 48 1006.8
20260508231151 16 83 1.6 4.8 0.00 0.03 0.03 45 1006.9
20260508230648 16 142 3.2 3.2 0.00 0.03 0.03 44 1006.8
20260508230144 16 132 3.2 3.2 0.00 0.03 0.03 43 1006.9
20260508225642 16 55 3.2 4.8 0.00 0.03 0.03 44 1006.8
20260508225138 16 162 4.8 11.3 0.00 0.03 0.03 44 1006.8
20260508224636 16 217 1.6 4.8 0.00 0.03 0.03 44 1006.8
20260508224134 16 172 3.2 4.8 0.00 0.03 0.03 45 1006.7
20260508223631 16 123 3.2 6.4 0.00 0.03 0.03 44 1006.8
20260508223128 16 139 4.8 12.9 0.00 0.03 0.03 43 1006.7
20260508222626 16 173 4.8 11.3 0.00 0.03 0.03 43 1006.7
20260508222122 16 150 3.2 9.7 0.00 0.03 0.03 44 1006.8
20260508221618 16 157 4.8 9.7 0.00 0.03 0.03 42 1007.0
20260508221114 16 94 1.6 4.8 0.00 0.03 0.03 42 1007.1
20260508220611 16 102 3.2 9.7 0.00 0.03 0.03 41 1006.9
20260508220108 16 169 6.4 9.7 0.00 0.03 0.03 42 1007.0
20260508215604 16 147 6.4 6.4 0.00 0.03 0.03 41 1006.9
20260508215101 16 158 4.8 6.4 0.00 0.03 0.03 42 1007.0
20260508214559 16 219 4.8 9.7 0.00 0.03 0.03 41 1007.2
20260508214055 16 102 6.4 9.7 0.00 0.03 0.03 42 1007.0
20260508213552 16 171 4.8 14.5 0.00 0.03 0.03 41 1006.9
20260508213048 16 55 3.2 9.7 0.00 0.03 0.03 40 1007.1
20260508212544 17 202 6.4 9.7 0.00 0.03 0.03 37 1006.9
20260508212041 17 217 6.4 12.9 0.00 0.03 0.03 39 1006.9
20260508211537 17 147 6.4 9.7 0.00 0.03 0.03 37 1007.0
20260508211033 17 165 3.2 4.8 0.00 0.03 0.03 41 1007.0
20260508210530 16 182 4.8 6.4 0.00 0.03 0.03 37 1006.9
20260508210028 17 237 9.7 14.5 0.00 0.03 0.03 37 1007.2
20260508205524 17 52 0.0 3.2 0.00 0.03 0.03 40 1007.1
20260508205020 17 163 4.8 4.8 0.00 0.03 0.03 38 1007.1
20260508204518 17 226 4.8 6.4 0.00 0.03 0.03 35 1007.2
20260508204013 16 70 0.0 6.4 0.00 0.03 0.03 38 1007.1
20260508203509 17 195 4.8 12.9 0.00 0.03 0.03 37 1007.4
20260508203005 17 73 1.6 4.8 0.00 0.03 0.03 35 1007.4
20260508202502 16 263 9.7 11.3 0.00 0.03 0.03 36 1007.5
20260508201959 17 138 4.8 4.8 0.00 0.03 0.03 36 1007.6
20260508201456 17 185 6.4 11.3 0.00 0.03 0.03 38 1007.6
20260508200952 17 287 6.4 11.3 0.00 0.03 0.03 31 1007.7
20260508200450 17 255 12.9 16.1 0.00 0.03 0.03 30 1007.8
20260508195944 16 241 4.8 9.7 0.00 0.03 0.03 34 1007.9
20260508195442 16 260 11.3 16.1 0.00 0.03 0.03 31 1007.9
20260508194938 17 269 11.3 17.7 0.00 0.03 0.03 33 1008.1
20260508194435 17 273 11.3 17.7 0.00 0.03 0.03 30 1008.0
20260508193932 17 174 3.2 4.8 0.00 0.03 0.03 30 1008.1
20260508193430 17 54 3.2 4.8 0.00 0.03 0.03 32 1008.2
20260508192925 16 62 0.0 6.4 0.00 0.03 0.03 30 1008.3
20260508192423 16 235 3.2 4.8 0.00 0.03 0.03 32 1008.3
20260508191919 16 237 8.0 16.1 0.00 0.03 0.03 36 1008.2
20260508191417 16 273 4.8 6.4 0.00 0.03 0.03 33 1008.4
20260508190913 16 262 9.7 20.9 0.00 0.03 0.03 34 1008.5
20260508190410 16 262 11.3 17.7 0.00 0.03 0.03 29 1008.4
20260508185906 16 264 19.3 24.1 0.00 0.03 0.03 30 1008.7
20260508185404 16 271 11.3 16.1 0.00 0.03 0.03 30 1008.8
20260508184901 16 229 3.2 4.8 0.00 0.03 0.03 34 1008.7
20260508184359 16 233 6.4 22.5 0.00 0.03 0.03 31 1008.5
20260508183855 16 248 6.4 12.9 0.00 0.03 0.03 28 1008.8
20260508183352 16 271 12.9 16.1 0.00 0.03 0.03 32 1009.0
20260508182848 15 283 3.2 6.4 0.00 0.03 0.03 35 1009.0
20260508182344 16 264 12.9 27.4 0.00 0.03 0.03 31 1008.9
20260508181840 15 203 3.2 17.7 0.00 0.03 0.03 27 1009.0
20260508181337 15 250 6.4 16.1 0.00 0.03 0.03 30 1009.2
20260508180834 15 7 3.2 16.1 0.00 0.03 0.03 30 1009.1
20260508180331 16 261 6.4 16.1 0.00 0.03 0.03 28 1009.2
20260508175827 15 68 0.0 3.2 0.00 0.03 0.03 35 1009.5
20260508175324 15 53 3.2 9.7 0.00 0.03 0.03 28 1009.6
20260508174822 15 260 8.0 16.1 0.00 0.03 0.03 31 1009.5
20260508174319 15 245 3.2 4.8 0.00 0.03 0.03 30 1009.7
20260508173815 15 22 3.2 4.8 0.00 0.03 0.03 30 1009.7
20260508173312 15 33 0.0 6.4 0.00 0.03 0.03 33 1010.0
20260508172808 15 247 6.4 20.9 0.00 0.03 0.03 34 1010.0
20260508172307 14 173 4.8 12.9 0.00 0.03 0.03 36 1010.2
20260508171801 14 28 8.0 17.7 0.00 0.03 0.03 34 1010.2
20260508171258 15 280 22.5 25.7 0.00 0.03 0.03 30 1010.2
20260508170755 15 321 6.4 11.3 0.00 0.03 0.03 32 1010.3
20260508170253 15 353 17.7 20.9 0.00 0.03 0.03 31 1010.6
20260508165749 13 56 1.6 3.2 0.00 0.03 0.03 33 1010.3
20260508165247 15 68 3.2 16.1 0.00 0.03 0.03 28 1010.7
20260508164743 15 261 4.8 6.4 0.00 0.03 0.03 37 1010.7
20260508164239 15 268 8.0 11.3 0.00 0.03 0.03 31 1010.6
20260508163738 14 356 3.2 11.3 0.00 0.03 0.03 33 1010.9
20260508163235 14 262 3.2 11.3 0.00 0.03 0.03 36 1010.5
20260508162730 14 47 3.2 4.8 0.00 0.03 0.03 36 1010.7
20260508162228 15 281 8.0 14.5 0.00 0.03 0.03 32 1010.7
20260508161725 13 128 1.6 6.4 0.00 0.03 0.03 39 1010.9
20260508161222 13 20 1.6 6.4 0.00 0.03 0.03 35 1010.7
20260508160720 14 250 6.4 14.5 0.00 0.03 0.03 34 1010.8
20260508160218 14 320 3.2 11.3 0.00 0.03 0.03 37 1010.8
20260508155714 13 33 0.0 1.6 0.00 0.03 0.03 40 1010.8
20260508155211 13 23 1.6 9.7 0.00 0.03 0.03 35 1011.0
20260508154708 13 295 4.8 9.7 0.00 0.03 0.03 35 1011.0
20260508154205 13 340 3.2 11.3 0.00 0.03 0.03 42 1011.0
20260508153702 13 11 3.2 6.4 0.00 0.03 0.03 36 1011.0
20260508153159 13 244 6.4 9.7 0.00 0.03 0.03 39 1011.1
20260508152655 13 250 8.0 9.7 0.00 0.03 0.03 38 1011.2
20260508152151 12 249 6.4 11.3 0.00 0.03 0.03 41 1011.3
20260508151648 12 296 3.2 6.4 0.00 0.03 0.03 43 1011.3
20260508151145 12 215 3.2 9.7 0.00 0.03 0.03 38 1011.2
20260508150642 12 251 11.3 12.9 0.00 0.03 0.03 41 1011.3
20260508150138 12 330 1.6 3.2 0.00 0.03 0.03 42 1011.3
20260508145634 12 260 8.0 14.5 0.00 0.03 0.03 39 1011.4
20260508145131 12 240 6.4 9.7 0.00 0.03 0.03 46 1011.4
20260508144628 12 273 9.7 12.9 0.00 0.03 0.03 42 1011.6
20260508144126 12 262 4.8 4.8 0.00 0.03 0.03 47 1011.2
20260508143623 12 45 3.2 6.4 0.00 0.03 0.03 44 1011.5
20260508143120 11 273 6.4 6.4 0.00 0.03 0.03 45 1011.4
20260508142616 11 228 4.8 6.4 0.00 0.03 0.03 47 1011.5
20260508142113 11 289 8.0 11.3 0.00 0.03 0.03 50 1011.5
20260508141609 11 278 9.7 14.5 0.00 0.03 0.03 48 1011.6
20260508141107 11 235 9.7 14.5 0.00 0.03 0.03 52 1011.6
20260508140604 11 7 0.0 3.2 0.00 0.03 0.03 53 1011.6
20260508140101 11 247 4.8 6.4 0.00 0.03 0.03 56 1011.6
20260508135556 11 237 3.2 11.3 0.00 0.03 0.03 57 1011.6
20260508135053 11 282 3.2 9.7 0.00 0.03 0.03 51 1011.7
20260508134550 11 17 1.6 6.4 0.00 0.03 0.03 54 1011.7
20260508134047 10 246 4.8 4.8 0.00 0.03 0.03 58 1011.7
20260508133543 10 36 3.2 9.7 0.00 0.03 0.03 55 1011.8
20260508133041 10 224 4.8 6.4 0.00 0.03 0.03 59 1011.8
20260508132539 10 239 6.4 6.4 0.00 0.03 0.03 60 1011.9
20260508132035 10 190 4.8 6.4 0.00 0.03 0.03 61 1011.9
20260508131530 9 355 0.0 4.8 0.00 0.03 0.03 62 1012.0
20260508131027 9 233 3.2 9.7 0.00 0.03 0.03 59 1011.9
20260508130525 9 277 8.0 12.9 0.00 0.03 0.03 60 1011.8
20260508130020 9 274 6.4 6.4 0.00 0.03 0.03 63 1011.7
20260508125516 9 262 6.4 6.4 0.00 0.03 0.03 66 1011.8
20260508125015 8 4 1.6 4.8 0.00 0.03 0.03 69 1011.9
20260508124512 8 281 3.2 6.4 0.00 0.03 0.03 68 1011.6
20260508124009 8 286 4.8 4.8 0.00 0.03 0.03 73 1011.7
20260508123508 8 1 3.2 3.2 0.00 0.03 0.03 74 1011.6
20260508123004 8 355 1.6 4.8 0.00 0.03 0.03 76 1011.4
20260508122501 7 250 4.8 6.4 0.00 0.03 0.03 74 1011.4
20260508121958 7 316 3.2 4.8 0.00 0.03 0.03 77 1011.5
20260508121456 7 354 3.2 4.8 0.00 0.03 0.03 77 1011.3
20260508120953 7 356 1.6 4.8 0.00 0.03 0.03 78 1011.3
20260508120451 7 27 1.6 1.6 0.00 0.03 0.03 79 1011.1
20260508115949 7 354 1.6 3.2 0.00 0.03 0.03 79 1011.3
20260508115446 7 19 1.6 3.2 0.00 0.03 0.03 77 1011.1
20260508114943 7 32 0.0 0.0 0.00 0.03 0.03 76 1011.2
20260508114440 7 45 0.0 0.0 0.00 0.03 0.03 78 1011.2
20260508113936 7 45 0.0 0.0 0.00 0.03 0.03 81 1011.1
20260508113434 6 45 0.0 0.0 0.00 0.03 0.03 82 1011.3
20260508112931 7 45 0.0 0.0 0.00 0.03 0.03 82 1011.1
20260508112428 6 45 0.0 0.0 0.00 0.03 0.03 87 1011.1
20260508111924 5 45 0.0 0.0 0.00 0.03 0.03 92 1011.1
20260508111421 4 45 0.0 0.0 0.00 0.03 0.03 94 1011.0
20260508110919 3 45 0.0 0.0 0.00 0.03 0.03 94 1011.0
20260508110416 3 45 0.0 0.0 0.00 0.03 0.03 95 1011.0
20260508105916 2 11 0.0 0.0 0.00 0.03 0.03 95 1011.2
20260508105412 2 11 0.0 0.0 0.00 0.03 0.03 94 1011.1
20260508104909 2 11 0.0 0.0 0.00 0.03 0.03 94 1011.1
20260508104407 2 11 0.0 0.0 0.00 0.03 0.03 95 1011.0
20260508103904 1 11 0.0 0.0 0.00 0.03 0.03 95 1011.0
20260508103400 1 11 0.0 0.0 0.00 0.03 0.03 94 1011.1
20260508102858 1 11 0.0 0.0 0.00 0.03 0.03 94 1010.9
20260508102356 1 11 0.0 0.0 0.00 0.03 0.03 94 1010.8
20260508101853 1 11 0.0 0.0 0.00 0.03 0.03 94 1011.1
20260508101350 1 11 0.0 0.0 0.00 0.03 0.03 94 1011.1
20260508100848 1 11 0.0 0.0 0.00 0.03 0.03 93 1011.2
20260508100347 1 11 0.0 0.0 0.00 0.03 0.03 93 1011.3
20260508095841 1 11 0.0 0.0 0.00 0.03 0.03 93 1011.1
20260508095340 2 11 0.0 0.0 0.00 0.03 0.03 92 1011.1
20260508094836 2 11 0.0 0.0 0.00 0.03 0.03 92 1011.1
20260508094333 2 11 0.0 0.0 0.00 0.03 0.03 92 1011.1
20260508093830 2 10 0.0 0.0 0.00 0.03 0.03 91 1011.0
20260508093328 2 10 0.0 0.0 0.00 0.03 0.03 91 1011.2
20260508092825 2 10 0.0 0.0 0.00 0.03 0.03 91 1011.1
20260508092323 3 10 0.0 0.0 0.00 0.03 0.03 90 1011.1
20260508091821 3 10 0.0 0.0 0.00 0.03 0.03 90 1011.2
20260508091317 3 10 0.0 0.0 0.00 0.03 0.03 90 1011.1
20260508090815 3 10 0.0 0.0 0.00 0.03 0.03 90 1011.2
20260508090313 3 8 0.0 0.0 0.00 0.03 0.03 90 1011.2
20260508085808 3 12 0.0 0.0 0.00 0.03 0.03 89 1011.2
20260508085307 3 12 0.0 0.0 0.00 0.03 0.03 89 1011.0
20260508084801 3 12 0.0 0.0 0.00 0.03 0.03 88 1010.9
20260508084259 4 12 0.0 0.0 0.00 0.03 0.03 87 1010.9
20260508083756 4 12 0.0 0.0 0.00 0.03 0.03 87 1011.0
20260508083254 4 12 0.0 1.6 0.00 0.03 0.03 86 1011.0
20260508082753 4 11 1.6 1.6 0.00 0.03 0.03 86 1011.0
20260508082251 5 11 1.6 3.2 0.00 0.03 0.03 86 1011.0
20260508081749 5 17 1.6 1.6 0.00 0.03 0.03 87 1011.2
20260508081245 4 247 6.4 6.4 0.00 0.03 0.03 90 1011.0
20260508080742 4 5 1.6 1.6 0.00 0.03 0.03 90 1011.0
20260508080240 4 41 0.0 3.2 0.00 0.03 0.03 91 1011.2
20260508075736 4 37 6.4 6.4 0.13 0.03 0.03 92 1010.9
20260508075233 5 63 1.6 1.6 0.13 0.03 0.03 91 1011.2
20260508074731 4 323 3.2 6.4 0.00 0.00 0.00 92 1011.2
20260508074229 4 33 1.6 1.6 0.00 0.00 0.00 91 1011.1
20260508073725 4 33 0.0 0.0 0.00 0.00 0.00 91 1011.1
20260508073223 4 37 0.0 1.6 0.00 0.00 0.00 91 1011.0
20260508072719 4 26 1.6 1.6 0.00 0.00 0.00 91 1011.1
20260508072216 4 26 0.0 0.0 0.00 0.00 0.00 91 1010.9
20260508071713 4 26 0.0 0.0 0.00 0.00 0.00 91 1011.1
20260508071212 4 25 0.0 0.0 0.00 0.00 0.00 91 1011.1
20260508070709 4 25 1.6 1.6 0.00 0.00 0.00 91 1011.2
20260508070207 4 24 0.0 1.6 0.00 0.00 0.00 91 1011.2
20260508065704 4 72 1.6 1.6 0.00 0.00 0.00 91 1010.9
20260508065202 5 72 1.6 1.6 0.00 0.00 0.00 91 1011.0
20260508064659 5 37 1.6 1.6 0.00 0.00 0.00 91 1011.3
20260508064158 5 59 1.6 1.6 0.00 0.00 0.00 90 1011.5
20260508063655 5 74 1.6 3.2 0.00 0.00 0.00 90 1011.2
20260508063152 5 34 0.0 1.6 0.00 0.00 0.00 89 1011.8
20260508062649 5 34 1.6 1.6 0.00 0.00 0.00 89 1011.7
20260508062146 5 35 1.6 1.6 0.00 0.00 0.00 89 1011.8
20260508061643 5 36 1.6 1.6 0.00 0.00 0.00 88 1011.8
20260508061141 5 36 1.6 1.6 0.00 0.00 0.00 88 1011.5
20260508060638 5 28 0.0 0.0 0.00 0.00 0.00 88 1011.8
20260508060135 5 20 0.0 1.6 0.00 0.00 0.00 88 1011.8
20260508055630 5 43 0.0 1.6 0.00 0.00 0.00 87 1011.6
20260508055127 5 38 1.6 3.2 0.00 0.00 0.00 86 1011.6
20260508054624 5 37 1.6 1.6 0.00 0.00 0.00 85 1011.8
20260508054122 5 38 0.0 0.0 0.00 0.00 0.00 84 1011.8
20260508053618 5 38 0.0 0.0 0.00 0.00 0.00 84 1012.0
20260508053116 5 38 0.0 0.0 0.00 0.00 0.00 83 1011.9
20260508052613 5 38 0.0 0.0 0.00 0.00 0.00 82 1011.7
20260508052110 5 38 0.0 0.0 0.00 0.00 0.00 83 1011.9
20260508051606 5 38 0.0 0.0 0.00 0.00 0.00 83 1012.0
20260508051102 5 38 0.0 0.0 0.00 0.00 0.00 83 1011.9
20260508050558 5 38 0.0 0.0 0.00 0.00 0.00 84 1011.9
20260508050056 5 37 0.0 0.0 0.00 0.00 0.00 83 1011.9
20260508045551 5 37 0.0 0.0 0.00 0.00 0.00 83 1011.8
20260508045049 5 37 0.0 0.0 0.00 0.00 0.00 83 1011.8
20260508044547 5 37 0.0 0.0 0.00 0.00 0.00 83 1012.0
20260508044042 5 37 0.0 0.0 0.00 0.00 0.00 84 1011.8
20260508043539 5 44 0.0 0.0 0.00 0.00 0.00 83 1012.0
20260508043037 5 35 0.0 0.0 0.00 0.00 0.00 80 1011.8
20260508042533 5 35 0.0 0.0 0.00 0.00 0.00 78 1011.6
20260508042031 5 35 0.0 0.0 0.00 0.00 0.00 77 1011.7
20260508041527 5 35 0.0 0.0 0.00 0.00 0.00 77 1011.7
20260508041023 5 35 0.0 1.6 0.00 0.00 0.00 78 1011.6
20260508040521 5 35 0.0 0.0 0.00 0.00 0.00 76 1011.7
20260508040018 5 35 0.0 0.0 0.00 0.00 0.00 76 1011.6
20260508035515 6 35 0.0 0.0 0.00 0.00 0.00 74 1011.7
20260508035012 6 23 0.0 1.6 0.00 0.00 0.00 72 1011.8
20260508034509 6 7 1.6 3.2 0.00 0.00 0.00 72 1011.8
20260508034006 6 43 0.0 1.6 0.00 0.00 0.00 71 1011.7
20260508033503 6 32 0.0 1.6 0.00 0.00 0.00 71 1011.6
20260508033001 5 22 1.6 4.8 0.00 0.00 0.00 73 1011.8
20260508032458 5 48 0.0 3.2 0.00 0.00 0.00 75 1011.9
20260508031955 5 53 1.6 1.6 0.00 0.00 0.00 75 1011.8
20260508031453 5 25 0.0 1.6 0.00 0.00 0.00 74 1011.6
20260508030947 5 40 0.0 0.0 0.00 0.00 0.00 74 1011.8
20260508030445 5 40 1.6 1.6 0.00 0.00 0.00 73 1011.6
20260508025942 5 40 0.0 1.6 0.00 0.00 0.00 72 1011.7
20260508025439 5 36 1.6 3.2 0.00 0.00 0.00 72 1011.7
20260508024936 5 45 0.0 1.6 0.00 0.00 0.00 72 1011.6